Find Aerocube 16A

NORAD ID: 59290 Int'l Des: 2024-053 Owner: AERO Country: US operational
LEOCIRCULAR

リアルタイム位置

3D地球を読み込み中...

Aerocube 16Aについて

説明を読み込み中...

次回通過

Passes for default location (London). Set your location on the main map for personalized predictions.

高度履歴

Loading altitude history...

軌道要素

1 59290U 24053C 26105.80023321 .00008658 00000-0 20869-3 0 9997
2 59290 49.9892 281.5286 0001813 91.5496 268.5674 15.41996552111476
Epoch: Apr 15, 2026 • Age: 11 hours

現在のステータス

高度 444.4 km
速度 7.65 km/s
衛星直下点 50.06°N, 71.93°E
打ち上げ日 Mar 21, 2024
運用期間 2 years
タイプ other

技術仕様

分類 Payload
質量 10.00 kg
乾燥質量 10.00 kg
総質量 10.00 kg
長さ 2.00 m
直径 1.00 m
スパン 5.00 m
形状 Box + pan
製造者 AERO
バスタイプ Cubesat 6U
フェーズステータス In Orbit
所有者/国 AERO/US

Most Searched